Location: Newark
(54.9667°N, 1.6167°W)
Time: 16:14:14
(UTC+00:00)

ISS - Visible Passes

Search period start: 21 November 2019 00:00
Search period end: 01 December 2019 00:00
Orbit: 412 x 421 km, 51.6° (Epoch: 22 November)

Date Brightness Start Highest point End Pass type
(mag) Time Alt. Az. Time Alt. Az. Time Alt. Az.
23 Nov -1.1 18:16:12 10° S 18:16:34 11° S 18:16:34 11° S visible
24 Nov -0.8 19:02:45 10° SW 19:03:09 13° SW 19:03:09 13° SW visible
25 Nov -1.9 18:14:43 10° SSW 18:16:46 21° S 18:16:46 21° S visible
26 Nov -1.8 17:26:52 10° SSW 17:29:10 17° SSE 17:30:19 15° ESE visible
26 Nov -1.1 19:02:11 10° WSW 19:03:13 18° SW 19:03:13 18° SW visible
27 Nov -1.3 16:39:22 10° S 16:40:56 13° SE 16:42:32 10° ESE visible
27 Nov -2.6 18:13:55 10° SW 18:16:43 34° S 18:16:43 34° S visible
28 Nov -2.3 17:25:45 10° SW 17:28:40 28° SSE 17:30:11 20° ESE visible
28 Nov -1.3 19:01:46 10° WSW 19:03:04 21° WSW 19:03:04 21° WSW visible
29 Nov -1.9 16:37:41 10° SSW 16:40:20 22° SSE 16:43:00 10° E visible
29 Nov -3.1 18:13:23 10° WSW 18:16:30 44° S 18:16:30 44° S visible
30 Nov -2.8 17:25:03 10° WSW 17:28:13 39° SSE 17:29:56 22° ESE visible
30 Nov -1.3 19:01:25 10° W 19:02:49 22° WSW 19:02:49 22° WSW visible
